Flag for Canada Weather past 2 weeks in Winnipeg, Manitoba, Canada

Now
64 °F

Passing clouds.


Feels Like: 64 °F
Forecast: 63 / 78 °F
Wind: 7 mph from Southeast

Location: Winnipeg Int. Airportman.

Current Time: Jul 25, 2014 at 5:39:13 AM

Latest Report: Jul 25, 2014 at 5:00 AM


Visibility: 15 mi

Pressure: 29.72 "Hg

Humidity: 83%

Dew point: 59 °F

Location of WinnipegLocation

Historic Weather in Winnipeg — Graph

°F

Winnipeg temperature yesterday

Maximum temperature yesterday: 75 °F (at 4:00 PM)
Minimum temperature yesterday: 54 °F (at 2:00 AM)
Average temperature yesterday: 66 °F

Past Weeks' High & Low Weather Summary

 TemperatureHumidityPressure
High88 °F (Jul 20, 2:00 PM)100% (Jul 15, 1:00 AM)30.35 "Hg (Jul 15, 1:00 AM)
Low45 °F (Jul 15, 5:00 AM)38% (Jul 23, 5:00 PM)29.51 "Hg (Jul 20, 1:00 PM)
Average66 °F70%29.92 "Hg
* Reported Jul 10 4:00 AM — Jul 25 4:00 AM, Winnipeg, Weather by CustomWeather, © 2014

Note: Actual official high and low records may vary slightly from our data, if they occured in-between our weather recording intervals... More about our weather records

Advertising

Winnipeg weather history for previous 24 hours

 ConditionsComfort  
Time TempWeatherWind HumidityBarometerVisibility
4:00 AM
Jul 25
66 °FPassing clouds.14 mph78%29.70 "Hg15 mi
3:00 AM64 °FPassing clouds.9 mph83%29.74 "Hg15 mi
2:00 AM66 °FPartly cloudy.12 mph83%29.78 "Hg15 mi
1:00 AM66 °FPassing clouds.7 mph83%29.84 "Hg15 mi
12:00 AM68 °FClear.10 mph78%29.82 "Hg15 mi
11:00 PM
Jul 24
68 °FClear.9 mph78%29.83 "Hg15 mi
10:00 PM70 °FPassing clouds.10 mph73%29.79 "Hg15 mi
9:00 PM72 °FPassing clouds.15 mph65%29.79 "Hg15 mi
8:00 PM73 °FPartly sunny.12 mph61%29.83 "Hg15 mi
7:00 PM73 °FPartly sunny.8 mph65%29.88 "Hg15 mi
6:00 PM75 °FPartly sunny.14 mph61%29.91 "Hg15 mi
5:00 PM75 °FCloudy.8 mph61%29.90 "Hg15 mi
4:00 PM75 °FCloudy.13 mph57%29.91 "Hg15 mi
3:00 PM73 °FBroken clouds.10 mph61%29.94 "Hg15 mi
2:00 PM73 °FBroken clouds.13 mph57%29.93 "Hg15 mi
1:00 PM72 °FPartly sunny.14 mph57%29.94 "Hg15 mi
12:00 PM70 °FPartly sunny.13 mph57%30.01 "Hg15 mi
11:00 AM70 °FPartly sunny.13 mph57%30.06 "Hg15 mi
10:00 AM66 °FPartly sunny.9 mph64%30.07 "Hg15 mi
9:00 AM66 °FPartly sunny.12 mph60%30.08 "Hg15 mi
8:00 AM63 °FPassing clouds.8 mph73%30.09 "Hg15 mi
7:00 AM57 °FPartly sunny.5 mph82%30.11 "Hg15 mi
6:00 AM55 °FPartly cloudy.5 mph82%30.12 "Hg15 mi
5:00 AM55 °FPassing clouds.6 mph88%30.13 "Hg15 mi
Weather by CustomWeather, © 2014

See weather overviewHow to use our weather pages